Date String (YYYY-MM-DD hh:mm:ss) UTC,Instrument flags,Ambient pressure (hPa),Sample flow (lpm),Bypass flow (lpm),Sample temperature (°C),Ambient temperature (°C),ASC tube jacket temperature (°C),LED temperature (°C),Box temperature (°C),Sample RH (%),Span deviation,Mass concentration (μg/m³),Mass concentration (μg/m³),Mass concentration (μg/m³)
DateTimeUTC,F1_M11,P_M11,Q1_M11,Q2_M11,T1_M11,T2_M11,T3_M11,T4_M11,T5_M11,U1_M11,ZSPAN_M11,X0_M11,X2_M11,X1_M11
2022-09-10 18:00:00,,0834.0,5.00,0.00,27.9,26.5,00.0,36.7,29.8,26.1,0000.0,0003.60,0002.97,0002.74
2022-09-10 18:01:00,,0834.0,4.98,0.00,27.9,26.5,00.0,36.7,29.8,26.1,0000.0,0003.74,0003.04,0002.78
2022-09-10 18:02:00,,0834.0,5.01,0.00,27.9,26.5,00.0,36.7,29.8,26.2,0000.0,0003.77,0003.08,0002.81
2022-09-10 18:03:00,,0834.0,5.01,0.00,27.9,26.5,00.0,36.7,29.9,26.2,0000.0,0003.76,0003.10,0002.85
2022-09-10 18:04:00,,0834.0,5.01,0.00,28.0,26.5,00.0,36.7,29.8,26.0,0000.0,0003.79,0003.13,0002.89
2022-09-10 18:05:00,,0834.0,4.98,0.00,28.0,26.5,00.0,36.7,29.8,26.0,0000.0,0003.80,0003.14,0002.91
2022-09-10 18:06:00,,0834.0,5.00,0.00,28.0,26.5,00.0,36.7,29.8,25.9,0000.0,0003.82,0003.15,0002.94
2022-09-10 18:07:00,,0834.0,5.01,0.00,28.0,26.5,00.0,36.7,29.8,26.0,0000.0,0003.85,0003.16,0002.95
2022-09-10 18:08:00,,0834.0,5.01,0.00,28.0,26.5,00.0,36.7,29.8,25.8,0000.0,0003.85,0003.16,0002.96
2022-09-10 18:09:00,,0834.0,5.01,0.00,28.0,26.5,00.0,36.7,29.9,25.7,0000.0,0003.87,0003.17,0002.97
2022-09-10 18:10:00,,0834.0,4.99,0.00,28.0,26.5,00.0,36.7,29.9,25.4,0000.0,0003.88,0003.18,0002.99
2022-09-10 18:11:00,,0834.0,5.01,0.00,28.0,26.6,00.0,36.7,29.9,25.5,0000.0,0003.90,0003.18,0003.00
2022-09-10 18:12:00,,0834.0,5.01,0.00,28.0,26.5,00.0,36.7,29.9,25.6,0000.0,0003.88,0003.18,0003.00
2022-09-10 18:13:00,,0834.0,5.00,0.00,28.0,26.5,00.0,36.7,29.9,25.6,0000.0,0003.94,0003.19,0003.01
2022-09-10 18:14:00,,0834.0,4.98,0.00,28.0,26.6,00.0,36.7,29.9,25.6,0000.0,0003.98,0003.20,0003.02
2022-09-10 18:15:00,,0834.0,5.01,0.00,28.0,26.6,00.0,36.7,29.9,25.6,0000.0,0004.05,0003.21,0003.02
2022-09-10 18:16:00,,0834.0,5.00,0.00,28.0,26.6,00.0,36.7,29.9,25.6,0000.0,0004.05,0003.21,0003.02
2022-09-10 18:17:00,,0834.0,5.00,0.00,28.0,26.6,00.0,36.7,29.9,25.8,0000.0,0004.08,0003.21,0003.03
2022-09-10 18:18:00,,0834.0,5.01,0.00,28.0,26.6,00.0,36.8,29.9,26.7,0000.0,0004.08,0003.21,0003.04
2022-09-10 18:19:00,,0834.0,4.98,0.00,28.0,26.6,00.0,36.8,29.9,27.3,0000.0,0004.14,0003.22,0003.05
2022-09-10 18:20:00,,0833.9,5.00,0.00,28.0,26.6,00.0,36.8,30.0,26.1,0000.0,0004.21,0003.24,0003.07
2022-09-10 18:21:00,,0834.0,5.00,0.00,28.1,26.6,00.0,36.8,29.9,25.8,0000.0,0004.21,0003.24,0003.07
2022-09-10 18:22:00,,0834.0,5.01,0.00,28.1,26.6,00.0,36.8,30.0,25.8,0000.0,0004.26,0003.26,0003.08
2022-09-10 18:23:00,,0834.0,4.98,0.00,28.1,26.6,00.0,36.8,30.0,25.7,0000.0,0004.28,0003.27,0003.11
2022-09-10 18:24:00,,0834.0,5.00,0.00,28.1,26.6,00.0,36.8,30.0,25.8,0000.0,0004.30,0003.28,0003.12
2022-09-10 18:25:00,,0834.0,5.00,0.00,28.1,26.6,00.0,36.8,30.0,25.6,0000.0,0004.39,0003.30,0003.13
2022-09-10 18:26:00,,0834.0,5.01,0.00,28.1,26.6,00.0,36.8,30.0,25.7,0000.0,0004.31,0003.28,0003.13
2022-09-10 18:27:00,,0834.0,5.00,0.00,28.1,26.6,00.0,36.8,30.0,25.6,0000.0,0004.32,0003.30,0003.15
2022-09-10 18:28:00,,0834.0,5.00,0.00,28.1,26.7,00.0,36.8,30.0,25.7,0000.0,0004.34,0003.31,0003.16
2022-09-10 18:29:00,,0834.0,4.99,0.00,28.1,26.7,00.0,36.8,30.0,25.8,0000.0,0004.34,0003.32,0003.16
2022-09-10 18:30:00,,0834.0,5.00,0.00,28.1,26.7,00.0,36.8,30.0,25.8,0000.0,0004.36,0003.33,0003.18
2022-09-10 18:31:00,,0834.0,5.00,0.00,28.1,26.7,00.0,36.8,30.0,25.7,0000.0,0004.67,0003.35,0003.19
2022-09-10 18:32:00,,0833.9,5.01,0.00,28.1,26.7,00.0,36.8,30.0,25.9,0000.0,0004.83,0003.36,0003.20
2022-09-10 18:33:00,,0833.9,5.00,0.00,28.1,26.7,00.0,36.8,30.0,25.9,0000.0,0004.85,0003.37,0003.21
2022-09-10 18:34:00,,0833.9,4.99,0.00,28.1,26.7,00.0,36.8,30.0,26.1,0000.0,0004.85,0003.37,0003.21
2022-09-10 18:35:00,,0834.0,5.01,0.00,28.1,26.7,00.0,36.8,30.0,26.2,0000.0,0004.76,0003.35,0003.21
2022-09-10 18:36:00,,0834.0,5.00,0.00,28.1,26.7,00.0,36.8,30.0,26.3,0000.0,0004.70,0003.35,0003.22
2022-09-10 18:37:00,,0834.0,5.00,0.00,28.1,26.7,00.0,36.8,30.0,26.2,0000.0,0004.73,0003.36,0003.22
2022-09-10 18:38:00,,0834.1,5.00,0.00,28.1,26.7,00.0,36.9,30.0,26.2,0000.0,0004.75,0003.37,0003.23
2022-09-10 18:39:00,,0834.0,4.99,0.00,28.1,26.7,00.0,36.8,30.0,26.3,0000.0,0004.79,0003.39,0003.24
2022-09-10 18:40:00,,0834.0,5.00,0.00,28.1,26.6,00.0,36.9,30.0,26.3,0000.0,0004.91,0003.43,0003.26
2022-09-10 18:41:00,,0834.0,5.01,0.00,28.2,26.7,00.0,36.9,30.0,26.1,0000.0,0005.13,0003.47,0003.29
2022-09-10 18:42:00,,0834.0,5.00,0.00,28.2,26.7,00.0,36.9,30.0,25.8,0000.0,0005.01,0003.49,0003.31
2022-09-10 18:43:00,,0834.0,5.00,0.00,28.2,26.7,00.0,36.9,30.0,26.0,0000.0,0004.93,0003.52,0003.33
2022-09-10 18:44:00,,0834.0,5.01,0.00,28.2,26.7,00.0,36.9,30.0,26.0,0000.0,0004.97,0003.54,0003.35
2022-09-10 18:45:00,,0834.0,5.00,0.00,28.2,26.7,00.0,36.9,30.1,26.2,0000.0,0005.03,0003.56,0003.37
2022-09-10 18:46:00,,0834.0,5.00,0.00,28.2,26.7,00.0,36.9,30.1,26.0,0000.0,0005.10,0003.59,0003.39
2022-09-10 18:47:00,,0834.0,4.99,0.00,28.2,26.7,00.0,36.9,30.0,25.8,0000.0,0005.12,0003.60,0003.40
2022-09-10 18:48:00,,0834.0,5.00,0.00,28.2,26.7,00.0,36.9,30.0,25.5,0000.0,0005.20,0003.60,0003.41
2022-09-10 18:49:00,,0834.0,5.00,0.00,28.2,26.7,00.0,36.9,30.1,25.5,0000.0,0005.20,0003.59,0003.41
2022-09-10 18:50:00,,0834.0,5.00,0.00,28.2,26.7,00.0,36.9,30.0,25.7,0000.0,0005.07,0003.57,0003.41
2022-09-10 18:51:00,,0833.9,5.00,0.00,28.2,26.7,00.0,36.9,30.0,25.9,0000.0,0005.04,0003.57,0003.43
2022-09-10 18:52:00,,0833.9,5.00,0.00,28.2,26.7,00.0,36.9,30.1,26.2,0000.0,0004.97,0003.60,0003.46
2022-09-10 18:53:00,,0834.0,5.00,0.00,28.2,26.7,00.0,36.9,30.1,26.3,0000.0,0005.01,0003.65,0003.51
2022-09-10 18:54:00,,0834.0,4.99,0.00,28.2,26.7,00.0,36.9,30.0,26.5,0000.0,0005.06,0003.71,0003.57
2022-09-10 18:55:00,,0834.0,5.01,0.00,28.2,26.7,00.0,36.9,30.1,26.6,0000.0,0005.20,0003.77,0003.63
2022-09-10 18:56:00,,0834.0,5.00,0.00,28.2,26.7,00.0,36.9,30.1,26.6,0000.0,0005.32,0003.83,0003.69
2022-09-10 18:57:00,,0834.0,5.00,0.00,28.2,26.7,00.0,36.9,30.1,26.9,0000.0,0005.55,0003.89,0003.75
2022-09-10 18:58:00,,0834.0,5.01,0.00,28.2,26.7,00.0,36.9,30.1,26.9,0000.0,0006.04,0003.97,0003.82
2022-09-10 18:59:00,,0834.0,5.00,0.00,28.2,26.7,00.0,36.9,30.1,26.7,0000.0,0006.20,0004.05,0003.88
